STARLINK-5783 (56022 NORAD) Tracking and Keplerian Element Data

This shows tracking and keplerian element data for the satellite.

Feedback or suggestion? Click here.




ElementValue
Catalog56022
NameSTARLINK-5783
Epoch Orbit717
Epoch Day127.00001157
Epoch Year2023
RAAN293.1838
Inclination42.9992
Eccentricity0.0001438
Argument of Perigee272.5577
Mean Anonmoly314.3493
Mean Motion15.54982603
Decay Rate-0.00925506
L11 56022U 23042AN 23127.00001157 -.00925506 00000+0 -14839-1 0 9999
L22 56022 42.9992 293.1838 0001438 272.5577 314.3493 15.54982603 7172



Live tracking and technical data element details for STARLINK-5783 (NORAD 56022). STARLINK-5783 can be tracked NOW for your location showing map with azimuth and elevation plus other details from your city location.







IsCatalogInMostPopularTable: catalog: 56022, numindb: -1

Insert: records affected: 1


GetName: 56022 STARLINK-5783

Hit Count: inserted at: Sun, 04 Jun 2023 23:20:33 GMT